GW4483 Weather Reports


time (UTC)temp
F
wind
direction
speed
knots
gust
knots
rain 1hr
in
rain 24hr
in
rain mn
in
humidity
%
barometer
mb
20260507094553 55 352 0.0 1.7 0.00 0.00 0.00 88 1016.5
20260507093054 55 348 0.0 2.6 0.00 0.00 0.00 89 1016.6
20260507091551 55 319 0.0 1.7 0.00 0.00 0.00 88 1016.6
20260507090051 55 319 0.0 1.7 0.00 0.00 0.00 90 1016.8
20260507084553 55 0 0.0 0.9 0.00 0.00 0.00 87 1017.0
20260507083052 56 0 0.0 1.7 0.00 0.00 0.00 88 1017.2
20260507081552 55 0 0.0 0.9 0.00 0.00 0.00 87 1017.3
20260507080116 56 0 0.0 1.7 0.00 0.00 0.00 86 1017.5
20260507074552 56 0 0.0 2.6 0.00 0.00 0.00 87 1017.4
20260507073053 56 360 0.9 2.6 0.00 0.00 0.00 88 1017.5
20260507071610 56 181 0.0 1.7 0.00 0.00 0.00 88 1017.4
20260507070052 57 0 0.0 1.7 0.00 0.00 0.00 87 1017.5
20260507064557 57 181 0.9 1.7 0.00 0.00 0.00 87 1017.7
20260507063056 58 0 0.0 0.9 0.00 0.00 0.00 86 1017.8
20260507061601 58 0 0.0 0.0 0.00 0.00 0.00 85 1017.6
20260507060056 58 181 0.0 1.7 0.00 0.00 0.00 85 1017.7
20260507054550 59 0 0.0 0.9 0.00 0.00 0.00 84 1017.7
20260507053120 59 0 0.0 1.7 0.00 0.00 0.00 83 1017.7
20260507051600 60 181 0.9 1.7 0.00 0.00 0.00 83 1017.8
20260507050053 60 181 0.9 1.7 0.00 0.00 0.00 82 1017.6
20260507044555 60 181 0.9 2.6 0.00 0.00 0.00 81 1017.5
20260507043054 61 0 0.0 3.5 0.00 0.00 0.00 81 1017.4
20260507041555 61 182 0.9 4.3 0.00 0.00 0.00 80 1017.5
20260507040052 62 161 0.0 3.5 0.00 0.00 0.00 78 1017.3
20260507034552 62 184 1.7 4.3 0.00 0.00 0.00 76 1017.1
20260507033053 62 0 1.7 5.2 0.00 0.00 0.00 74 1016.9
20260507031556 63 186 0.9 5.2 0.00 0.00 0.00 73 1016.7
20260507030057 63 201 3.5 7.8 0.00 0.00 0.00 75 1016.6
20260507024601 64 0 2.6 9.6 0.00 0.00 0.00 73 1016.5
20260507023051 65 187 2.6 7.8 0.00 0.00 0.00 72 1016.4
20260507021556 66 167 1.7 7.0 0.00 0.00 0.00 69 1016.3
20260507020050 67 180 2.6 8.7 0.00 0.00 0.00 68 1016.2
20260507014601 67 169 3.5 8.7 0.00 0.00 0.00 67 1016.1
20260507013051 68 157 2.6 7.8 0.00 0.00 0.00 65 1016.0
20260507011558 68 158 3.5 8.7 0.00 0.00 0.00 65 1016.1
20260507004605 70 171 2.6 7.8 0.00 0.00 0.00 63 1016.0
20260507003055 70 199 4.3 11.3 0.00 0.00 0.00 62 1015.8
20260507001555 70 0 2.6 11.3 0.00 0.00 0.00 63 1015.8
20260507000055 70 169 4.3 10.4 0.00 0.00 0.00 63 1015.8
20260506234553 70 213 3.5 12.2 0.00 0.00 0.00 62 1015.7
20260506233057 70 208 4.3 10.4 0.00 0.00 0.00 62 1015.7
20260506231601 70 127 4.3 10.4 0.00 0.00 0.00 61 1015.7
20260506230056 70 147 6.1 12.2 0.00 0.00 0.00 62 1015.7
20260506224554 70 205 5.2 11.3 0.00 0.00 0.00 61 1015.8
20260506223053 70 153 5.2 11.3 0.00 0.00 0.00 62 1016.0
20260506221555 69 116 6.1 13.0 0.00 0.00 0.00 64 1016.0
20260506220053 69 131 6.1 13.9 0.00 0.00 0.00 64 1016.2
20260506214602 69 63 4.3 12.2 0.00 0.00 0.00 64 1016.4
20260506213056 69 225 4.3 13.0 0.00 0.00 0.00 64 1016.6
20260506211604 69 223 6.1 13.0 0.00 0.00 0.00 63 1016.6
20260506210057 70 204 4.3 13.0 0.00 0.00 0.00 63 1016.8
20260506204600 69 165 5.2 11.3 0.00 0.00 0.00 63 1016.8
20260506203055 70 216 6.1 11.3 0.00 0.00 0.00 62 1016.8
20260506201551 69 171 6.1 13.9 0.00 0.00 0.00 62 1017.0
20260506200101 70 169 3.5 11.3 0.00 0.00 0.00 63 1017.2
20260506194602 69 161 4.3 12.2 0.00 0.00 0.00 63 1017.3
20260506193056 69 109 3.5 10.4 0.00 0.00 0.00 63 1017.4
20260506191605 69 178 3.5 10.4 0.00 0.00 0.00 61 1017.5
20260506190054 69 148 3.5 10.4 0.00 0.00 0.00 61 1017.5
20260506184554 69 171 3.5 9.6 0.00 0.00 0.00 58 1017.6
20260506183056 69 209 5.2 11.3 0.00 0.00 0.00 56 1017.8
20260506181559 68 221 2.6 7.8 0.00 0.00 0.00 59 1017.9
20260506180113 67 267 4.3 9.6 0.00 0.00 0.00 60 1018.1
20260506174553 66 235 3.5 7.8 0.00 0.01 0.00 61 1018.3
20260506173124 65 211 2.6 13.0 0.00 0.01 0.00 62 1018.4
20260506171603 65 217 2.6 7.8 0.00 0.01 0.00 62 1018.4
20260506170053 64 265 5.2 7.8 0.00 0.01 0.00 64 1018.4
20260506164551 64 245 4.3 8.7 0.00 0.01 0.00 65 1018.3
20260506163100 63 218 3.5 7.0 0.00 0.01 0.00 65 1018.2
20260506161557 63 151 1.7 7.0 0.00 0.01 0.00 69 1018.1
20260506160054 62 198 1.7 5.2 0.00 0.01 0.00 69 1018.3
20260506154552 62 216 1.7 7.0 0.00 0.01 0.00 70 1018.3
20260506153059 61 0 2.6 6.1 0.00 0.01 0.00 70 1018.4
20260506151558 61 279 1.7 6.1 0.00 0.01 0.00 72 1018.4
20260506150057 61 173 0.9 3.5 0.00 0.01 0.00 72 1018.4
20260506144606 59 0 0.0 2.6 0.00 0.02 0.00 76 1018.3
20260506143103 58 352 0.9 2.6 0.00 0.02 0.00 79 1018.3
20260506141557 56 360 0.0 1.7 0.00 0.02 0.00 81 1018.3
20260506140145 54 360 0.9 1.7 0.00 0.02 0.00 86 1018.2
20260506134555 52 0 0.9 1.7 0.00 0.14 0.00 86 1018.1
20260506133101 52 360 0.9 1.7 0.00 0.14 0.00 86 1018.0
20260506131553 53 0 0.0 1.7 0.00 0.14 0.00 86 1017.9
20260506130057 53 360 0.0 1.7 0.00 0.14 0.00 86 1017.8
20260506124551 53 352 0.0 1.7 0.00 0.16 0.00 86 1017.6
20260506123054 52 360 0.0 2.6 0.00 0.16 0.00 86 1017.6
20260506121554 52 15 0.9 1.7 0.00 0.16 0.00 86 1017.5
20260506120053 52 15 0.9 2.6 0.00 0.16 0.00 86 1017.4
20260506114550 52 0 0.0 2.6 0.00 0.17 0.00 86 1017.4
20260506113059 52 350 0.9 2.6 0.00 0.17 0.00 86 1017.6
20260506111558 52 352 0.0 2.6 0.00 0.17 0.00 85 1017.5
20260506110054 52 340 0.9 2.6 0.00 0.17 0.00 85 1017.5
20260506104558 52 360 0.9 2.6 0.00 0.17 0.00 85 1017.5
20260506103051 52 0 0.0 1.7 0.00 0.17 0.00 86 1017.4
20260506101556 52 352 0.0 1.7 0.00 0.17 0.00 86 1017.3
20260506100105 52 352 0.0 2.6 0.00 0.17 0.00 85 1017.3